Location: DARK SKY Beskydy - Park tmavé oblohy, www.darkskybeskydy.cz
(49.4926°N, 18.5016°E)
Time: 10:49:20
(UTC+02:00)

BlueWalker 3 - Pass Details

Date: 27 June 2024
Orbit: 480 x 491 km, 53.2° (Epoch: 23 July)

Event Time Altitude Azimuth Distance (km) Brightness Sun altitude
Rises 23:13:41 0° 291° (WNW) 2,542 6.2 -14.2°
Reaches altitude 10° 23:15:52 10° 294° (WNW) 1,659 5.2 -14.3°
Maximum altitude 23:19:35 64° 17° (NNE) 537 2.2 -14.5°
Drops below altitude 10° 23:23:17 10° 100° (E) 1,653 4.3 -14.8°
Enters shadow 23:23:18 10° 100° (E) 1,658 4.3 -14.8°
